[[{"header":{"parameterUnit":"m.s-1","parameterCategory":1,"la1":30.2991,"la2":30.254,"lo1":-89.0895,"lo2":-89.0444,"dy":0.0017,"dx":0.0017,"nx":28,"ny":28,"refTime":"2023-07-24T03:00:00:Z","depth":0,"parameterNumber":2,"parameterNumberName":"U-component_of_WINDS"},"data":[0,0,0,0,0,0,0,0,0,0,0,0,0,0,0,0,0,0,0,0,0,0,0,0,0,0,0,0,0,0,0,0,0,0,0,0,0,0,0,0,0,0,0,0,0,0,0,0,0,0,0,0,0,0,0,0,0,0,-0.0248,-0.0248,0,-0.0247,-0.0247,-0.0247,-0.0272,-0.0272,-0.0273,-0.0274,-0.0271,-0.0271,-0.027,0,0,0,0,0,0,0,0,0,0,0,0,0,-0.027,-0.0269,-0.0248,-0.0248,-0.0248,-0.0247,-0.0247,-0.0247,-0.0272,-0.0272,-0.0273,-0.0274,-0.0271,-0.0271,-0.027,0,0,0,0,0,0,0,0,0,0,0,0,0,-0.0264,-0.0269,-0.0248,-0.026,-0.0261,-0.0247,-0.0247,-0.0247,-0.0272,-0.0273,-0.0274,-0.0274,-0.0272,-0.0271,-0.027,-0.0243,0,0,-0.0267,-0.0266,0,0,0,0,0,0,0,0,-0.0264,-0.0263,-0.0258,-0.0259,-0.026,-0.0261,-0.0254,-0.0246,-0.0271,-0.0268,-0.0274,-0.0275,-0.0267,-0.0266,-0.0264,-0.0243,-0.0243,-0.0266,-0.0266,-0.0265,-0.0265,0,0,0,0,0,0,0,-0.0264,-0.0263,-0.0248,-0.0258,-0.0259,-0.0265,-0.0266,-0.0253,-0.0261,-0.0268,-0.027,-0.0269,-0.0268,-0.0265,-0.0264,-0.0243,-0.0267,-0.0266,-0.0265,-0.0265,-0.0202,-0.0201,0,0,0,0,0,0,-0.0263,-0.0263,-0.0248,-0.0247,-0.0265,-0.0264,-0.0264,-0.0259,-0.0262,-0.0263,-0.0269,-0.0271,-0.0266,-0.0265,-0.0264,-0.0234,-0.0265,-0.0264,-0.0264,-0.0203,-0.0202,-0.0201,0,0,0,0,0,0,-0.0264,-0.0262,-0.0248,-0.0256,-0.0255,-0.0263,-0.0257,-0.0259,-0.0256,-0.0262,-0.0264,-0.0264,-0.0267,-0.0265,-0.0249,-0.0234,-0.0264,-0.0263,-0.0204,-0.0203,-0.0201,-0.0173,0,0,0,0,0,0,-0.0264,-0.0262,-0.0252,-0.0256,-0.0254,-0.0232,-0.0256,-0.0258,-0.0255,-0.0257,-0.0259,-0.026,-0.0267,-0.025,-0.0248,-0.0233,-0.0262,-0.0206,-0.0204,-0.0202,-0.0176,-0.0171,-0.0167,0,0,0,0,0,-0.0265,-0.0244,-0.0251,-0.0249,-0.0242,-0.0232,-0.0231,-0.0241,-0.0253,-0.0244,-0.0248,-0.026,-0.0236,-0.0248,-0.0246,-0.0231,-0.0207,-0.0204,-0.0202,-0.0178,-0.0172,-0.0167,0,0,0,0,0,0,-0.0237,-0.0244,-0.0253,-0.0232,-0.0231,-0.0236,-0.0224,-0.0234,-0.0229,-0.0232,-0.0244,-0.0244,-0.0225,-0.0226,-0.024,-0.0206,-0.0224,-0.0221,-0.0206,-0.0201,-0.0197,-0.0197,-0.0261,0,0,0,0,0,-0.0229,-0.022,-0.0227,-0.0208,-0.0207,-0.0215,-0.0211,-0.0219,-0.0218,-0.0218,-0.0221,-0.0219,-0.0212,-0.0206,-0.0199,-0.0176,-0.0177,-0.0165,-0.016,-0.0157,-0.0154,-0.0143,-0.0137,-0.0193,-0.0193,-0.0193,0,0,-0.0211,-0.0214,-0.0208,-0.0202,-0.0202,-0.0193,-0.0215,-0.0204,-0.0197,-0.0216,-0.0201,-0.0203,-0.0202,-0.0182,-0.0173,-0.0182,-0.0139,-0.0154,-0.0151,-0.015,-0.014,-0.0134,-0.013,-0.0191,-0.0192,-0.0192,0,0,-0.0174,-0.0175,-0.016,-0.016,-0.0161,-0.0167,-0.0163,-0.0166,-0.0169,-0.0154,-0.0168,-0.016,-0.0146,-0.0145,-0.0143,-0.0107,-0.0118,-0.0104,-0.0082,-0.0071,-0.0066,-0.0063,-0.005,-0.0045,-0.0102,-0.0101,-0.0101,0,-0.0152,-0.0139,-0.0151,-0.0139,-0.0137,-0.0154,-0.0139,-0.0138,-0.0136,-0.0134,-0.0144,-0.0128,-0.0129,-0.0109,-0.0101,-0.0098,-0.0094,-0.0104,-0.0066,-0.0062,-0.0059,-0.0047,-0.0043,-0.01,-0.01,-0.01,-0.01,0,-0.0112,-0.0103,-0.0091,-0.0089,-0.0085,-0.0072,-0.0081,-0.0076,-0.0084,-0.0089,-0.0074,-0.0075,-0.0069,-0.0065,-0.0073,-0.0047,-0.0053,-0.0064,-0.0082,-0.0052,-0.0041,-0.0037,-0.0098,-0.0098,-0.0099,-0.0099,0,0,-0.0058,-0.0064,-0.0059,-0.0059,-0.0061,-0.0054,-0.0041,-0.0037,-0.0032,-0.003,-0.002,-0.0008,-0.0019,-0.0017,-0.0025,-0.0014,0.0014,-0.0028,-0.0028,-0.002,0.0041,0.005,0.0055,0.0006,0.0007,0.0008,0.0041,0,-0.0023,-0.0002,-0.0013,0.0009,0.0017,0.0,0.0011,0.0011,0.0007,0.0013,0.0009,0.0017,0.0002,0.0003,0.0012,0.0008,0.0026,0.0006,0.0016,0.0016,0.0015,0.0061,0.007,0.0102,0.0045,0.0046,0.0047,0,0.0021,0.0024,0.0046,0.0042,0.0045,0.0055,0.0058,0.0064,0.0064,0.006,0.0063,0.0052,0.0064,0.0047,0.0063,0.0049,0.0053,0.0051,0.0052,0.0053,0.0033,0.0062,0.0112,0.0116,0.0053,0.0053,0.0052,0,0.0057,0.0067,0.0081,0.0082,0.0078,0.0085,0.0083,0.0082,0.0085,0.0088,0.009,0.0095,0.0097,0.0101,0.0093,0.0081,0.011,0.0092,0.0107,0.0108,0.0114,0.0114,0.0165,0.0117,0.0117,0.0117,0.0117,0,0.0097,0.0112,0.0097,0.0106,0.0122,0.011,0.0125,0.0122,0.0121,0.0129,0.0115,0.0123,0.0111,0.0118,0.0111,0.0126,0.0127,0.0124,0.0122,0.0125,0.0126,0.0127,0.0125,0.0118,0.0118,0.0118,0.0117,0,0.014,0.0132,0.0146,0.014,0.0139,0.0151,0.0146,0.0154,0.0149,0.0159,0.0161,0.0152,0.016,0.0151,0.0158,0.0154,0.0173,0.0168,0.0173,0.0171,0.0187,0.0185,0.024,0.0247,0.0196,0.0196,0.0196,0,0.0166,0.0177,0.0172,0.0176,0.0175,0.0182,0.0185,0.0173,0.0177,0.0177,0.0185,0.0191,0.0195,0.0208,0.0202,0.0207,0.0202,0.0221,0.0203,0.0205,0.0202,0.0201,0.0202,0.0225,0.0225,0.0226,0.0226,0,0.0212,0.0207,0.0212,0.0215,0.0219,0.0221,0.0222,0.0226,0.0214,0.0219,0.0226,0.0229,0.0236,0.0242,0.0245,0.0244,0.0233,0.0232,0.0236,0.0239,0.0241,0.0239,0.0182,0.0231,0.023,0.023,0.023,0.0229,0.0247,0.0255,0.0253,0.0258,0.0258,0.0259,0.0266,0.0261,0.0266,0.027,0.0264,0.0272,0.0271,0.0274,0.0274,0.0281,0.0273,0.0279,0.028,0.0281,0.0284,0.024,0.0282,0.0282,0.0282,0.0281,0.0281,0,0.0292,0.029,0.0295,0.0296,0.0301,0.0289,0.029,0.0294,0.0302,0.0302,0.0306,0.0313,0.0319,0.0314,0.0319,0.0325,0.032,0.0326,0.0326,0.0325,0.0291,0.0287,0.033,0.033,0.033,0.033,0.033,0.033,0.0316,0.0329,0.0324,0.0336,0.0334,0.0341,0.0342,0.0343,0.0343,0.0352,0.0356,0.0353,0.0351,0.0355,0.036,0.0358,0.036,0.0369,0.0365,0.0333,0.0328,0.0323,0.032,0.0369,0.0369,0.0399,0.04,0.04]},{"header":{"parameterUnit":"m.s-1","parameterCategory":1,"la1":30.2991,"la2":30.254,"lo1":-89.0895,"lo2":-89.0444,"dy":0.0017,"dx":0.0017,"nx":28,"ny":28,"refTime":"2023-07-24T03:00:00:Z","depth":0,"parameterNumber":3,"parameterNumberName":"V-component_of_WINDS"},"data":[0,0,0,0,0,0,0,0,0,0,0,0,0,0,0,0,0,0,0,0,0,0,0,0,0,0,0,0,0,0,0,0,0,0,0,0,0,0,0,0,0,0,0,0,0,0,0,0,0,0,0,0,0,0,0,0,0,0,3.9542,3.9541,0,3.9476,3.9476,3.9475,3.9417,3.9416,3.9416,3.9415,3.9343,3.9342,3.934,0,0,0,0,0,0,0,0,0,0,0,0,0,3.9613,3.9612,3.9542,3.9541,3.9541,3.9477,3.9476,3.9475,3.9417,3.9416,3.9416,3.9415,3.9343,3.9342,3.934,0,0,0,0,0,0,0,0,0,0,0,0,0,3.9568,3.9612,3.9542,3.9504,3.95,3.9477,3.9476,3.9474,3.9417,3.9416,3.9415,3.9414,3.9344,3.9342,3.934,3.9348,0,0,3.9334,3.9333,0,0,0,0,0,0,0,0,3.9571,3.9566,3.9511,3.9507,3.9502,3.9454,3.9474,3.9432,3.9418,3.9449,3.9415,3.9414,3.938,3.9375,3.9365,3.9344,3.9341,3.9334,3.9333,3.9332,3.9331,0,0,0,0,0,0,0,3.9574,3.9568,3.9516,3.951,3.9505,3.9489,3.9481,3.9466,3.9421,3.9446,3.9442,3.9435,3.9378,3.9367,3.9363,3.934,3.9334,3.9332,3.9331,3.933,3.9319,3.932,0,0,0,0,0,0,3.9584,3.9571,3.9518,3.9514,3.9535,3.9488,3.948,3.947,3.9421,3.9412,3.9436,3.9432,3.9371,3.9365,3.936,3.9363,3.9332,3.933,3.9329,3.9318,3.9319,3.932,0,0,0,0,0,0,3.9586,3.958,3.9521,3.9541,3.9533,3.9488,3.9478,3.947,3.9459,3.9413,3.9404,3.9433,3.937,3.9363,3.9351,3.936,3.9329,3.9327,3.9317,3.9318,3.932,3.9372,0,0,0,0,0,0,3.9588,3.9581,3.9584,3.9542,3.9532,3.9514,3.9479,3.9469,3.9456,3.9451,3.9408,3.94,3.9369,3.9354,3.9349,3.9357,3.9326,3.9316,3.9318,3.9319,3.9369,3.9375,3.938,0,0,0,0,0,3.9591,3.9601,3.9585,3.9579,3.9536,3.9515,3.9509,3.9474,3.9457,3.9459,3.943,3.9402,3.9361,3.9353,3.9347,3.9355,3.9315,3.9317,3.9319,3.9366,3.9373,3.9379,0,0,0,0,0,0,3.9644,3.9595,3.9576,3.9573,3.9549,3.9505,3.9507,3.9483,3.9461,3.9457,3.9413,3.9403,3.9396,3.9374,3.9367,3.9358,3.9334,3.9335,3.9372,3.9378,3.9384,3.9388,3.9324,0,0,0,0,0,3.9655,3.9644,3.9601,3.9603,3.9592,3.9552,3.9542,3.9517,3.9489,3.9478,3.9447,3.942,3.94,3.9388,3.9368,3.9366,3.9354,3.9368,3.9373,3.9378,3.9378,3.9373,3.9378,3.9327,3.9327,3.9327,0,0,3.9679,3.9651,3.9646,3.9613,3.9591,3.9579,3.9543,3.9532,3.9522,3.9475,3.9462,3.9439,3.9405,3.9398,3.9393,3.9379,3.939,3.9381,3.9385,3.9382,3.9376,3.938,3.9385,3.9328,3.9328,3.9328,0,0,3.9714,3.9693,3.9691,3.9671,3.9638,3.9612,3.9611,3.9571,3.9555,3.9541,3.9505,3.9492,3.946,3.9437,3.9421,3.9448,3.942,3.9442,3.9469,3.9465,3.9469,3.9472,3.9479,3.9482,3.9444,3.9444,3.9444,0,3.9747,3.9728,3.9693,3.9684,3.9669,3.9629,3.9625,3.9606,3.9568,3.9558,3.9545,3.9503,3.9478,3.9463,3.9469,3.9459,3.9455,3.9446,3.9471,3.9474,3.9477,3.9483,3.9486,3.9446,3.9446,3.9446,3.9446,0,3.9769,3.9756,3.9759,3.9725,3.9711,3.9704,3.9666,3.9656,3.9632,3.9607,3.9592,3.956,3.9532,3.9527,3.9503,3.9508,3.9501,3.948,3.9454,3.9485,3.949,3.9492,3.945,3.9449,3.9449,3.9448,0,0,3.9834,3.9782,3.9783,3.9766,3.9728,3.9716,3.9708,3.9682,3.9673,3.9648,3.9638,3.9612,3.9592,3.9574,3.9547,3.9544,3.9564,3.9523,3.9521,3.9529,3.9564,3.9579,3.9582,3.9546,3.9547,3.9547,3.9566,0,3.9862,3.9845,3.9813,3.9806,3.9792,3.9754,3.9746,3.972,3.9696,3.968,3.9652,3.9633,3.961,3.9599,3.9593,3.9563,3.957,3.9561,3.9533,3.9533,3.9541,3.9585,3.96,3.962,3.9568,3.9568,3.9569,0,3.9891,3.987,3.9862,3.9824,3.9817,3.9811,3.9783,3.9769,3.9739,3.9721,3.9701,3.9672,3.9658,3.9637,3.9616,3.9611,3.9597,3.9581,3.958,3.9574,3.9551,3.9578,3.9626,3.9628,3.9572,3.9572,3.9571,0,3.9937,3.9907,3.9897,3.9885,3.9841,3.9836,3.9817,3.9786,3.9772,3.9748,3.9738,3.9712,3.9697,3.9677,3.9641,3.9629,3.9622,3.9599,3.9605,3.9606,3.9603,3.9604,3.9647,3.9599,3.9599,3.9599,3.9599,0,3.997,3.9965,3.9917,3.9911,3.9905,3.9868,3.9862,3.9839,3.9811,3.9798,3.9764,3.9752,3.9706,3.9688,3.966,3.9645,3.9639,3.9622,3.9614,3.9624,3.9626,3.9613,3.961,3.96,3.96,3.9599,3.9599,0,4.0018,3.9987,3.9973,3.9933,3.9923,3.992,3.9884,3.9875,3.985,3.9834,3.9828,3.9786,3.9763,3.9726,3.9692,3.9673,3.9662,3.965,3.9673,3.9668,3.9675,3.9674,3.971,3.9712,3.9665,3.9666,3.9666,0,4.004,4.0036,3.9996,3.9986,3.9968,3.9953,3.9938,3.9901,3.9888,3.9853,3.9848,3.9823,3.9801,3.9765,3.9731,3.9704,3.9689,3.9704,3.9685,3.9694,3.9687,3.9687,3.9685,3.9708,3.9708,3.9709,3.971,0,4.0081,4.0066,4.0048,4.0024,4.0009,3.9988,3.9965,3.9958,3.9916,3.9902,3.9879,3.9862,3.9828,3.9802,3.9771,3.9748,3.9721,3.9716,3.9716,3.9725,3.9737,3.9728,3.9682,3.9715,3.9714,3.9714,3.9714,3.9713,4.0115,4.0109,4.008,4.0061,4.004,4.002,4.001,3.9983,3.9964,3.9935,3.9914,3.9892,3.9859,3.9814,3.9794,3.9774,3.9762,3.9762,3.9762,3.9762,3.9764,3.9742,3.9768,3.9768,3.9768,3.9768,3.9768,0,4.0152,4.0132,4.0115,4.0085,4.0069,4.0048,4.0021,4.0009,3.9991,3.9964,3.9944,3.9917,3.9892,3.9855,3.9827,3.9818,3.9805,3.9812,3.9811,3.9805,3.9778,3.978,3.9823,3.9823,3.9823,3.9823,3.9823,3.9823,4.017,4.0158,4.014,4.0117,4.0095,4.0075,4.0062,4.0042,4.002,3.9992,3.9972,3.995,3.9918,3.9887,3.9862,3.9852,3.9842,3.9853,3.9838,3.9813,3.9808,3.9803,3.9804,3.9851,3.9851,3.9867,3.9867,3.9867]}]]